NNSS 19 [?]

Last updated on Tue Jun 27 2023 00:03:36 GMT+0000 (Coordinated Universal Time)

1 04507U 70067A 23177.46792311 .00000100 00000+0 12729-3 0 9993 2 04507 89.9449 236.8256 0172984 21.8662 338.9756 13.50930901601042
UTC large
Height (km)
Speed (km/s)
/
Latitude / Longitude
Inclination (degrees)
Orbital Period (minutes)
Azimuth
Elevation
Range (km)
Doppler Factor

Next 0 passes for location: London (51.5072 / 0.1276)

Sorry there are no passes over London.